Time,TemperatureF,DewpointF,PressureIn,WindDirection,WindDirectionDegrees,WindSpeedMPH,WindSpeedGustMPH,Humidity,HourlyPrecipIn,Conditions,Clouds,dailyrainin,SolarRadiationWatts/m^2,SoftwareType,DateUTC
2013-04-12 00:04:00,37.1,31.8,30.10,ESE,107,3.0,3.0,81,0.00,,,0.00,0,Wunderground v.1.15,2013-04-12 04:04:00,
2013-04-12 00:09:00,36.9,31.6,30.10,ENE,57,3.0,4.0,81,0.00,,,0.00,0,Wunderground v.1.15,2013-04-12 04:09:00,
2013-04-12 00:14:00,36.8,31.8,30.09,ENE,57,3.0,3.0,82,0.00,,,0.00,0,Wunderground v.1.15,2013-04-12 04:14:00,
2013-04-12 00:19:00,36.8,32.1,30.09,NE,35,2.0,3.0,83,0.00,,,0.00,0,Wunderground v.1.15,2013-04-12 04:19:00,
2013-04-12 00:29:00,36.6,32.2,30.09,ENE,68,3.0,4.0,84,0.00,,,0.00,0,Wunderground v.1.15,2013-04-12 04:29:00,
2013-04-12 00:34:00,36.5,32.4,30.09,East,82,3.0,5.0,85,0.00,,,0.00,0,Wunderground v.1.15,2013-04-12 04:34:00,
2013-04-12 00:39:00,36.4,32.3,30.08,East,88,3.0,5.0,85,0.00,,,0.00,0,Wunderground v.1.15,2013-04-12 04:39:00,
2013-04-12 00:44:00,36.3,32.5,30.08,NE,51,3.0,3.0,86,0.00,,,0.00,0,Wunderground v.1.15,2013-04-12 04:44:00,
2013-04-12 00:49:00,36.2,32.7,30.08,NE,53,3.0,4.0,87,0.00,,,0.00,0,Wunderground v.1.15,2013-04-12 04:49:00,
2013-04-12 00:54:00,36.1,32.6,30.07,NE,36,4.0,4.0,87,0.00,,,0.00,0,Wunderground v.1.15,2013-04-12 04:54:00,
2013-04-12 00:59:00,36.0,32.5,30.07,East,98,5.0,6.0,87,0.00,,,0.00,0,Wunderground v.1.15,2013-04-12 04:59:00,
2013-04-12 01:04:00,36.0,32.8,30.06,South,180,5.0,5.0,88,0.00,,,0.00,0,Wunderground v.1.15,2013-04-12 05:04:00,
2013-04-12 01:09:00,35.9,32.7,30.07,ENE,74,4.0,5.0,88,0.00,,,0.00,0,Wunderground v.1.15,2013-04-12 05:09:00,
2013-04-12 01:19:00,35.7,32.8,30.06,ENE,61,4.0,8.0,89,0.00,,,0.00,0,Wunderground v.1.15,2013-04-12 05:19:00,
2013-04-12 01:24:00,35.7,32.8,30.06,NNE,33,4.0,5.0,89,0.00,,,0.00,0,Wunderground v.1.15,2013-04-12 05:24:00,
2013-04-12 01:29:00,35.5,32.9,30.07,ENE,77,4.0,8.0,90,0.00,,,0.00,0,Wunderground v.1.15,2013-04-12 05:29:00,
2013-04-12 01:34:00,35.3,32.7,30.07,East,84,5.0,5.0,90,0.00,,,0.00,0,Wunderground v.1.15,2013-04-12 05:34:00,
2013-04-12 01:39:00,35.3,32.7,30.08,ENE,62,4.0,5.0,90,0.00,,,0.00,0,Wunderground v.1.15,2013-04-12 05:39:00,
2013-04-12 01:44:00,35.2,32.8,30.08,NE,52,3.0,3.0,91,0.00,,,0.00,0,Wunderground v.1.15,2013-04-12 05:44:00,
2013-04-12 01:49:00,35.1,32.7,30.08,NE,36,4.0,9.0,91,0.00,,,0.00,0,Wunderground v.1.15,2013-04-12 05:49:00,
2013-04-12 01:59:00,34.8,32.4,30.08,NE,41,5.0,5.0,91,0.00,,,0.00,0,Wunderground v.1.15,2013-04-12 05:59:00,
2013-04-12 02:04:00,34.8,32.4,30.08,NE,52,6.0,7.0,91,0.00,,,0.00,0,Wunderground v.1.15,2013-04-12 06:04:00,
2013-04-12 02:09:00,34.8,32.4,30.07,East,98,5.0,7.0,91,0.00,,,0.00,0,Wunderground v.1.15,2013-04-12 06:09:00,
2013-04-12 02:14:00,34.8,32.4,30.07,NE,42,4.0,8.0,91,0.00,,,0.00,0,Wunderground v.1.15,2013-04-12 06:14:00,
2013-04-12 02:19:00,34.8,32.4,30.07,NNE,17,4.0,8.0,91,0.00,,,0.00,0,Wunderground v.1.15,2013-04-12 06:19:00,
2013-04-12 02:24:00,34.9,32.5,30.07,ESE,121,4.0,4.0,91,0.00,,,0.00,0,Wunderground v.1.15,2013-04-12 06:24:00,
2013-04-12 02:29:00,34.9,32.3,30.07,NNW,343,5.0,5.0,90,0.00,,,0.00,0,Wunderground v.1.15,2013-04-12 06:29:00,
2013-04-12 02:34:00,34.9,32.5,30.07,East,80,5.0,6.0,91,0.00,,,0.00,0,Wunderground v.1.15,2013-04-12 06:34:00,
2013-04-12 02:39:00,35.0,32.6,30.06,ENE,76,4.0,6.0,91,0.00,,,0.00,0,Wunderground v.1.15,2013-04-12 06:39:00,
2013-04-12 02:44:00,35.0,32.6,30.06,East,92,3.0,3.0,91,0.00,,,0.00,0,Wunderground v.1.15,2013-04-12 06:44:00,
2013-04-12 02:54:00,35.0,32.6,30.06,ENE,67,5.0,5.0,91,0.00,,,0.00,0,Wunderground v.1.15,2013-04-12 06:54:00,
2013-04-12 03:04:00,35.1,32.7,30.05,NE,51,4.0,4.0,91,0.00,,,0.00,0,Wunderground v.1.15,2013-04-12 07:04:00,
2013-04-12 03:09:00,35.1,32.7,30.05,NNE,29,4.0,4.0,91,0.00,,,0.00,0,Wunderground v.1.15,2013-04-12 07:09:00,
2013-04-12 03:14:00,35.1,32.7,30.05,NNE,13,4.0,10.0,91,0.00,,,0.00,0,Wunderground v.1.15,2013-04-12 07:14:00,
2013-04-12 03:19:00,35.1,32.7,30.05,East,92,4.0,10.0,91,0.00,,,0.00,0,Wunderground v.1.15,2013-04-12 07:19:00,
2013-04-12 03:24:00,35.1,32.7,30.05,ENE,60,4.0,7.0,91,0.00,,,0.00,0,Wunderground v.1.15,2013-04-12 07:24:00,
2013-04-12 03:29:00,35.1,32.7,30.06,ENE,73,4.0,7.0,91,0.00,,,0.00,0,Wunderground v.1.15,2013-04-12 07:29:00,
2013-04-12 03:39:00,35.2,32.8,30.06,ENE,78,4.0,4.0,91,0.00,,,0.00,0,Wunderground v.1.15,2013-04-12 07:39:00,
2013-04-12 03:44:00,35.2,33.1,30.06,ENE,70,4.0,5.0,92,0.00,,,0.00,0,Wunderground v.1.15,2013-04-12 07:44:00,
2013-04-12 03:54:00,35.2,33.1,30.05,East,80,6.0,7.0,92,0.00,,,0.00,0,Wunderground v.1.15,2013-04-12 07:54:00,
2013-04-12 03:59:00,35.2,33.1,30.05,ENE,67,5.0,7.0,92,0.00,,,0.00,0,Wunderground v.1.15,2013-04-12 07:59:00,
2013-04-12 04:04:00,35.3,33.2,30.05,ESE,117,5.0,5.0,92,0.00,,,0.00,0,Wunderground v.1.15,2013-04-12 08:04:00,
2013-04-12 04:09:00,35.3,33.5,30.05,ENE,71,5.0,7.0,93,0.00,,,0.00,0,Wunderground v.1.15,2013-04-12 08:09:00,
2013-04-12 04:19:00,35.4,33.6,30.06,ENE,67,5.0,6.0,93,0.00,,,0.00,0,Wunderground v.1.15,2013-04-12 08:19:00,
2013-04-12 04:24:00,35.4,33.6,30.05,ENE,76,4.0,4.0,93,0.00,,,0.00,0,Wunderground v.1.15,2013-04-12 08:24:00,
2013-04-12 04:29:00,35.5,33.7,30.05,NE,41,4.0,4.0,93,0.00,,,0.00,0,Wunderground v.1.15,2013-04-12 08:29:00,
2013-04-12 04:34:00,35.5,33.7,30.05,SE,129,6.0,9.0,93,0.00,,,0.00,0,Wunderground v.1.15,2013-04-12 08:34:00,
2013-04-12 04:39:00,35.6,33.8,30.05,ESE,109,7.0,9.0,93,0.00,,,0.00,0,Wunderground v.1.15,2013-04-12 08:39:00,
2013-04-12 04:44:00,35.6,33.8,30.05,ENE,73,6.0,10.0,93,0.00,,,0.00,0,Wunderground v.1.15,2013-04-12 08:44:00,
2013-04-12 04:49:00,35.7,34.1,30.05,NE,42,5.0,10.0,94,0.00,,,0.00,0,Wunderground v.1.15,2013-04-12 08:49:00,
2013-04-12 04:59:00,35.7,34.1,30.05,East,91,5.0,6.0,94,0.00,,,0.00,0,Wunderground v.1.15,2013-04-12 08:59:00,
2013-04-12 05:04:00,35.7,34.1,30.04,East,99,6.0,9.0,94,0.00,,,0.00,0,Wunderground v.1.15,2013-04-12 09:04:00,
2013-04-12 05:14:00,35.7,34.1,30.04,East,96,6.0,8.0,94,0.00,,,0.00,0,Wunderground v.1.15,2013-04-12 09:14:00,
2013-04-12 05:19:00,35.7,34.1,30.05,NE,52,5.0,8.0,94,0.00,,,0.00,0,Wunderground v.1.15,2013-04-12 09:19:00,
2013-04-12 05:29:00,35.7,34.1,30.05,East,92,6.0,10.0,94,0.00,,,0.00,0,Wunderground v.1.15,2013-04-12 09:29:00,
2013-04-12 05:34:00,35.7,34.1,30.04,East,98,6.0,6.0,94,0.00,,,0.00,0,Wunderground v.1.15,2013-04-12 09:34:00,
2013-04-12 05:39:00,35.6,34.0,30.04,NE,49,5.0,6.0,94,0.00,,,0.00,0,Wunderground v.1.15,2013-04-12 09:39:00,
2013-04-12 05:49:00,35.6,34.0,30.03,ENE,57,6.0,8.0,94,0.00,,,0.00,0,Wunderground v.1.15,2013-04-12 09:49:00,
2013-04-12 05:54:00,35.6,34.0,30.04,ENE,71,7.0,11.0,94,0.00,,,0.00,0,Wunderground v.1.15,2013-04-12 09:54:00,
2013-04-12 06:04:00,35.6,34.0,30.04,NE,38,6.0,6.0,94,0.00,,,0.00,0,Wunderground v.1.15,2013-04-12 10:04:00,
2013-04-12 06:09:00,35.7,33.9,30.05,SE,140,7.0,7.0,93,0.00,,,0.00,0,Wunderground v.1.15,2013-04-12 10:09:00,
2013-04-12 06:19:00,35.7,33.9,30.05,NE,49,6.0,7.0,93,0.00,,,0.00,0,Wunderground v.1.15,2013-04-12 10:19:00,
2013-04-12 06:24:00,35.8,34.0,30.04,East,93,6.0,6.0,93,0.00,,,0.00,0,Wunderground v.1.15,2013-04-12 10:24:00,
2013-04-12 06:29:00,35.8,34.0,30.04,NE,35,7.0,7.0,93,0.00,,,0.00,0,Wunderground v.1.15,2013-04-12 10:29:00,
2013-04-12 06:39:00,35.8,34.0,30.03,East,93,7.0,10.0,93,0.00,,,0.00,11,Wunderground v.1.15,2013-04-12 10:39:00,
2013-04-12 06:49:00,35.8,34.0,30.03,ENE,76,7.0,9.0,93,0.00,,,0.00,16,Wunderground v.1.15,2013-04-12 10:49:00,
2013-04-12 06:54:00,35.8,34.0,30.03,North,360,7.0,7.0,93,0.00,,,0.00,12,Wunderground v.1.15,2013-04-12 10:54:00,
2013-04-12 07:04:00,35.8,34.0,30.01,ENE,57,7.0,9.0,93,0.00,,,0.00,25,Wunderground v.1.15,2013-04-12 11:04:00,
2013-04-12 07:14:00,35.8,33.7,30.01,NE,38,8.0,8.0,92,0.00,,,0.00,21,Wunderground v.1.15,2013-04-12 11:14:00,
2013-04-12 07:19:00,35.8,33.7,30.01,East,91,8.0,15.0,92,0.00,,,0.00,28,Wunderground v.1.15,2013-04-12 11:19:00,
2013-04-12 07:29:00,35.8,33.7,30.01,East,85,9.0,14.0,92,0.00,,,0.00,21,Wunderground v.1.15,2013-04-12 11:29:00,
2013-04-12 07:39:00,35.8,33.7,30.02,ESE,111,7.0,17.0,92,0.00,,,0.00,12,Wunderground v.1.15,2013-04-12 11:39:00,
2013-04-12 07:44:00,35.8,33.7,30.01,East,83,8.0,8.0,92,0.00,,,0.00,11,Wunderground v.1.15,2013-04-12 11:44:00,
2013-04-12 07:49:00,35.8,33.7,30.01,NNE,22,8.0,8.0,92,0.00,,,0.00,11,Wunderground v.1.15,2013-04-12 11:49:00,
2013-04-12 07:59:00,35.8,33.7,30.00,ESE,117,9.0,12.0,92,0.00,,,0.00,14,Wunderground v.1.15,2013-04-12 11:59:00,
2013-04-12 08:04:00,35.8,33.7,30.00,ENE,78,9.0,14.0,92,0.00,,,0.00,23,Wunderground v.1.15,2013-04-12 12:04:00,
2013-04-12 08:14:00,35.9,33.5,30.00,SE,146,7.0,7.0,91,0.00,,,0.00,16,Wunderground v.1.15,2013-04-12 12:14:00,
2013-04-12 08:19:00,35.9,33.5,30.00,East,86,7.0,7.0,91,0.00,,,0.00,18,Wunderground v.1.15,2013-04-12 12:19:00,
2013-04-12 08:29:00,35.9,33.5,30.00,ENE,78,8.0,12.0,91,0.00,,,0.00,14,Wunderground v.1.15,2013-04-12 12:29:00,
2013-04-12 08:34:00,35.8,33.4,29.99,NNE,30,8.0,9.0,91,0.00,,,0.00,18,Wunderground v.1.15,2013-04-12 12:34:00,
2013-04-12 08:39:00,35.7,33.6,30.00,East,80,8.0,9.0,92,0.00,,,0.00,16,Wunderground v.1.15,2013-04-12 12:39:00,
2013-04-12 08:49:00,35.5,33.7,29.99,ENE,60,8.0,13.0,93,0.00,,,0.00,21,Wunderground v.1.15,2013-04-12 12:49:00,
2013-04-12 08:59:00,35.3,33.7,29.98,East,82,7.0,8.0,94,0.00,,,0.01,21,Wunderground v.1.15,2013-04-12 12:59:00,
2013-04-12 09:04:00,35.2,33.6,29.98,SE,142,6.0,6.0,94,0.00,,,0.01,26,Wunderground v.1.15,2013-04-12 13:04:00,
2013-04-12 09:09:00,35.1,33.5,29.98,NE,47,6.0,10.0,94,0.00,,,0.01,32,Wunderground v.1.15,2013-04-12 13:09:00,
2013-04-12 09:14:00,35.0,33.4,29.98,ESE,117,7.0,15.0,94,0.00,,,0.01,28,Wunderground v.1.15,2013-04-12 13:14:00,
2013-04-12 09:24:00,34.8,33.2,29.97,ESE,102,8.0,8.0,94,0.00,,,0.01,39,Wunderground v.1.15,2013-04-12 13:24:00,
2013-04-12 09:29:00,34.8,33.2,29.97,ESE,115,8.0,8.0,94,0.00,,,0.01,21,Wunderground v.1.15,2013-04-12 13:29:00,
2013-04-12 09:39:00,34.5,33.0,29.96,East,81,8.0,12.0,94,0.00,,,0.01,18,Wunderground v.1.15,2013-04-12 13:39:00,
2013-04-12 09:49:00,34.3,33.0,29.96,ESE,119,8.0,11.0,95,0.11,,,0.03,28,Wunderground v.1.15,2013-04-12 13:49:00,
2013-04-12 09:59:00,34.0,32.7,29.95,East,81,9.0,9.0,95,0.10,,,0.04,42,Wunderground v.1.15,2013-04-12 13:59:00,
2013-04-12 10:09:00,33.9,32.6,29.95,SE,139,7.0,11.0,95,0.15,,,0.07,28,Wunderground v.1.15,2013-04-12 14:09:00,
2013-04-12 10:19:00,33.7,32.7,29.96,East,89,8.0,9.0,96,0.06,,,0.08,25,Wunderground v.1.15,2013-04-12 14:19:00,
2013-04-12 10:29:00,33.5,32.5,29.95,ENE,77,9.0,9.0,96,0.24,,,0.10,33,Wunderground v.1.15,2013-04-12 14:29:00,
2013-04-12 10:34:00,33.5,32.5,29.94,NNE,33,7.0,8.0,96,0.13,,,0.11,44,Wunderground v.1.15,2013-04-12 14:34:00,
2013-04-12 10:44:00,33.4,32.4,29.94,ESE,117,7.0,8.0,96,0.44,,,0.16,88,Wunderground v.1.15,2013-04-12 14:44:00,
2013-04-12 10:54:00,33.5,32.7,29.94,East,96,7.0,8.0,97,0.08,,,0.19,76,Wunderground v.1.15,2013-04-12 14:54:00,
2013-04-12 10:59:00,33.5,32.7,29.95,ENE,71,8.0,8.0,97,0.08,,,0.19,42,Wunderground v.1.15,2013-04-12 14:59:00,
2013-04-12 11:04:00,33.6,32.8,29.95,East,88,8.0,9.0,97,0.06,,,0.20,42,Wunderground v.1.15,2013-04-12 15:04:00,
2013-04-12 11:09:00,33.7,32.9,29.96,ENE,78,7.0,9.0,97,0.10,,,0.21,51,Wunderground v.1.15,2013-04-12 15:09:00,
2013-04-12 11:14:00,33.8,33.0,29.97,East,96,7.0,9.0,97,0.14,,,0.22,84,Wunderground v.1.15,2013-04-12 15:14:00,
2013-04-12 11:19:00,33.8,33.0,29.97,ENE,67,8.0,9.0,97,0.13,,,0.23,97,Wunderground v.1.15,2013-04-12 15:19:00,
2013-04-12 11:29:00,34.1,33.3,29.96,ESE,107,8.0,10.0,97,0.15,,,0.25,88,Wunderground v.1.15,2013-04-12 15:29:00,
2013-04-12 11:39:00,34.4,33.6,29.96,East,101,8.0,8.0,97,0.07,,,0.26,100,Wunderground v.1.15,2013-04-12 15:39:00,
2013-04-12 11:44:00,34.5,33.7,29.96,ESE,102,8.0,9.0,97,0.06,,,0.26,69,Wunderground v.1.15,2013-04-12 15:44:00,
2013-04-12 11:54:00,34.7,34.2,29.95,ESE,117,7.0,14.0,98,0.04,,,0.27,107,Wunderground v.1.15,2013-04-12 15:54:00,
2013-04-12 12:04:00,34.6,33.8,29.95,East,98,9.0,9.0,97,0.08,,,0.28,95,Wunderground v.1.15,2013-04-12 16:04:00,
2013-04-12 12:14:00,34.6,33.8,29.95,ENE,67,8.0,8.0,97,0.04,,,0.29,62,Wunderground v.1.15,2013-04-12 16:14:00,
2013-04-12 12:19:00,34.6,33.8,29.95,NE,51,7.0,8.0,97,0.04,,,0.29,91,Wunderground v.1.15,2013-04-12 16:19:00,
2013-04-12 12:24:00,34.6,33.8,29.94,SE,126,7.0,7.0,97,0.04,,,0.29,116,Wunderground v.1.15,2013-04-12 16:24:00,
2013-04-12 12:29:00,34.7,34.2,29.94,ENE,74,8.0,10.0,98,0.04,,,0.30,113,Wunderground v.1.15,2013-04-12 16:29:00,
2013-04-12 12:39:00,34.8,34.3,29.94,SE,129,9.0,10.0,98,0.04,,,0.30,123,Wunderground v.1.15,2013-04-12 16:39:00,
2013-04-12 12:44:00,35.0,34.5,29.94,ESE,111,8.0,8.0,98,0.04,,,0.30,111,Wunderground v.1.15,2013-04-12 16:44:00,
2013-04-12 12:54:00,35.2,34.7,29.93,ESE,120,7.0,15.0,98,0.00,,,0.30,105,Wunderground v.1.15,2013-04-12 16:54:00,
2013-04-12 12:59:00,35.1,34.6,29.93,SE,130,8.0,15.0,98,0.00,,,0.31,70,Wunderground v.1.15,2013-04-12 16:59:00,
2013-04-12 13:09:00,35.0,34.5,29.92,East,88,8.0,9.0,98,0.00,,,0.31,86,Wunderground v.1.15,2013-04-12 17:09:00,
2013-04-12 13:14:00,35.0,34.5,29.92,East,93,8.0,11.0,98,0.05,,,0.32,81,Wunderground v.1.15,2013-04-12 17:14:00,
2013-04-12 13:19:00,35.0,34.5,29.91,SE,129,9.0,11.0,98,0.05,,,0.32,123,Wunderground v.1.15,2013-04-12 17:19:00,
2013-04-12 13:29:00,35.2,34.7,29.90,ESE,121,10.0,10.0,98,0.08,,,0.34,95,Wunderground v.1.15,2013-04-12 17:29:00,
2013-04-12 13:39:00,35.3,34.8,29.90,East,92,8.0,9.0,98,0.05,,,0.34,113,Wunderground v.1.15,2013-04-12 17:39:00,
2013-04-12 13:49:00,35.4,34.9,29.88,ENE,72,9.0,9.0,98,0.00,,,0.34,130,Wunderground v.1.15,2013-04-12 17:49:00,
2013-04-12 13:54:00,35.4,34.9,29.88,SE,125,9.0,9.0,98,0.00,,,0.34,98,Wunderground v.1.15,2013-04-12 17:54:00,
2013-04-12 14:04:00,35.4,34.9,29.89,NE,40,9.0,9.0,98,0.00,,,0.34,83,Wunderground v.1.15,2013-04-12 18:04:00,
2013-04-12 14:14:00,35.4,34.9,29.89,ESE,121,9.0,9.0,98,0.00,,,0.34,72,Wunderground v.1.15,2013-04-12 18:14:00,
2013-04-12 14:24:00,35.4,34.9,29.89,NE,52,7.0,7.0,98,0.00,,,0.34,62,Wunderground v.1.15,2013-04-12 18:24:00,
2013-04-12 15:29:00,35.4,34.9,29.85,East,94,6.0,7.0,98,0.00,,,0.34,74,Wunderground v.1.15,2013-04-12 19:29:00,
2013-04-12 15:34:00,35.5,35.0,29.85,East,88,6.0,6.0,98,0.00,,,0.34,98,Wunderground v.1.15,2013-04-12 19:34:00,
2013-04-12 15:39:00,35.7,35.2,29.84,ESE,115,7.0,9.0,98,0.00,,,0.34,77,Wunderground v.1.15,2013-04-12 19:39:00,
2013-04-12 15:49:00,35.7,35.2,29.84,ESE,108,7.0,7.0,98,0.00,,,0.34,83,Wunderground v.1.15,2013-04-12 19:49:00,
2013-04-12 15:54:00,35.7,35.2,29.84,East,101,8.0,8.0,98,0.00,,,0.34,91,Wunderground v.1.15,2013-04-12 19:54:00,
2013-04-12 15:59:00,35.7,35.2,29.84,East,98,8.0,8.0,98,0.00,,,0.34,54,Wunderground v.1.15,2013-04-12 19:59:00,
2013-04-12 16:09:00,35.7,35.2,29.83,ENE,68,7.0,8.0,98,0.00,,,0.34,63,Wunderground v.1.15,2013-04-12 20:09:00,
2013-04-12 16:14:00,35.6,35.1,29.83,ENE,76,8.0,8.0,98,0.00,,,0.34,67,Wunderground v.1.15,2013-04-12 20:14:00,
2013-04-12 16:19:00,35.8,35.3,29.82,East,94,7.0,11.0,98,0.00,,,0.34,69,Wunderground v.1.15,2013-04-12 20:19:00,
2013-04-12 16:29:00,35.8,35.3,29.82,East,92,6.0,6.0,98,0.00,,,0.34,49,Wunderground v.1.15,2013-04-12 20:29:00,
2013-04-12 16:34:00,35.8,35.3,29.82,NE,50,6.0,6.0,98,0.00,,,0.34,53,Wunderground v.1.15,2013-04-12 20:34:00,
2013-04-12 16:44:00,35.7,35.2,29.82,ENE,61,7.0,7.0,98,0.00,,,0.34,44,Wunderground v.1.15,2013-04-12 20:44:00,
2013-04-12 16:54:00,35.7,35.2,29.82,East,82,7.0,13.0,98,0.00,,,0.34,46,Wunderground v.1.15,2013-04-12 20:54:00,
2013-04-12 16:59:00,35.5,35.0,29.82,NE,40,8.0,13.0,98,0.00,,,0.34,39,Wunderground v.1.15,2013-04-12 20:59:00,
2013-04-12 17:09:00,35.5,35.0,29.81,ENE,65,6.0,11.0,98,0.00,,,0.34,35,Wunderground v.1.15,2013-04-12 21:09:00,
2013-04-12 17:14:00,35.6,35.1,29.81,ENE,65,6.0,9.0,98,0.00,,,0.34,39,Wunderground v.1.15,2013-04-12 21:14:00,
2013-04-12 17:24:00,35.7,35.2,29.81,East,94,5.0,5.0,98,0.00,,,0.34,30,Wunderground v.1.15,2013-04-12 21:24:00,
2013-04-12 17:29:00,35.6,35.1,29.81,ENE,76,6.0,8.0,98,0.00,,,0.34,58,Wunderground v.1.15,2013-04-12 21:29:00,
2013-04-12 17:39:00,35.5,35.0,29.81,NNW,344,7.0,8.0,98,0.00,,,0.34,35,Wunderground v.1.15,2013-04-12 21:39:00,
2013-04-12 17:49:00,35.5,35.0,29.81,NE,46,7.0,7.0,98,0.00,,,0.34,47,Wunderground v.1.15,2013-04-12 21:49:00,
2013-04-12 17:54:00,35.4,34.9,29.81,North,5,7.0,7.0,98,0.00,,,0.34,33,Wunderground v.1.15,2013-04-12 21:54:00,
2013-04-12 18:04:00,35.4,35.1,29.81,East,88,6.0,6.0,99,0.00,,,0.35,33,Wunderground v.1.15,2013-04-12 22:04:00,
2013-04-12 18:09:00,35.3,35.0,29.81,NW,325,6.0,6.0,99,0.00,,,0.35,25,Wunderground v.1.15,2013-04-12 22:09:00,
2013-04-12 18:14:00,35.3,35.0,29.81,ENE,76,5.0,8.0,99,0.00,,,0.35,23,Wunderground v.1.15,2013-04-12 22:14:00,
2013-04-12 18:19:00,35.3,35.0,29.81,ENE,61,4.0,8.0,99,0.00,,,0.35,19,Wunderground v.1.15,2013-04-12 22:19:00,
2013-04-12 18:24:00,35.2,34.7,29.80,NE,55,6.0,12.0,98,0.00,,,0.35,21,Wunderground v.1.15,2013-04-12 22:24:00,
2013-04-12 18:34:00,35.0,34.5,29.81,NE,55,7.0,7.0,98,0.00,,,0.35,12,Wunderground v.1.15,2013-04-12 22:34:00,
2013-04-12 18:44:00,34.8,34.3,29.81,North,5,6.0,9.0,98,0.00,,,0.35,7,Wunderground v.1.15,2013-04-12 22:44:00,
2013-04-12 18:54:00,34.7,34.2,29.81,NE,37,6.0,6.0,98,0.00,,,0.35,5,Wunderground v.1.15,2013-04-12 22:54:00,
2013-04-12 19:04:00,34.6,34.1,29.80,ENE,67,6.0,10.0,98,0.00,,,0.35,7,Wunderground v.1.15,2013-04-12 23:04:00,
2013-04-12 19:09:00,34.4,33.9,29.80,NE,42,7.0,10.0,98,0.00,,,0.35,7,Wunderground v.1.15,2013-04-12 23:09:00,
2013-04-12 19:14:00,34.3,33.8,29.80,NE,51,8.0,8.0,98,0.00,,,0.35,5,Wunderground v.1.15,2013-04-12 23:14:00,
2013-04-12 19:19:00,34.3,33.8,29.80,ENE,71,7.0,8.0,98,0.00,,,0.35,0,Wunderground v.1.15,2013-04-12 23:19:00,
2013-04-12 19:29:00,34.2,33.7,29.80,ENE,69,6.0,7.0,98,0.00,,,0.35,0,Wunderground v.1.15,2013-04-12 23:29:00,
2013-04-12 19:34:00,34.2,33.9,29.80,North,360,6.0,7.0,99,0.00,,,0.35,0,Wunderground v.1.15,2013-04-12 23:34:00,
2013-04-12 19:39:00,34.2,33.9,29.80,NNE,22,6.0,7.0,99,0.00,,,0.35,0,Wunderground v.1.15,2013-04-12 23:39:00,
2013-04-12 19:44:00,34.1,33.8,29.80,NNE,24,7.0,7.0,99,0.00,,,0.35,0,Wunderground v.1.15,2013-04-12 23:44:00,
2013-04-12 19:49:00,34.1,33.8,29.80,ENE,58,6.0,7.0,99,0.00,,,0.35,0,Wunderground v.1.15,2013-04-12 23:49:00,
2013-04-12 19:59:00,34.1,33.8,29.79,ENE,74,6.0,6.0,99,0.00,,,0.35,0,Wunderground v.1.15,2013-04-12 23:59:00,
2013-04-12 20:04:00,34.1,33.8,29.79,NE,54,6.0,7.0,99,0.00,,,0.35,0,Wunderground v.1.15,2013-04-13 00:04:00,
2013-04-12 20:14:00,34.0,33.5,29.80,ENE,69,6.0,7.0,98,0.00,,,0.35,0,Wunderground v.1.15,2013-04-13 00:14:00,
2013-04-12 20:24:00,33.9,33.4,29.79,NE,53,7.0,10.0,98,0.00,,,0.35,0,Wunderground v.1.15,2013-04-13 00:24:00,
2013-04-12 20:29:00,33.9,33.6,29.79,NNE,31,7.0,10.0,99,0.00,,,0.35,0,Wunderground v.1.15,2013-04-13 00:29:00,
2013-04-12 20:34:00,33.9,33.6,29.79,ENE,57,6.0,6.0,99,0.00,,,0.35,0,Wunderground v.1.15,2013-04-13 00:34:00,
2013-04-12 20:44:00,33.8,33.5,29.79,NNE,27,5.0,8.0,99,0.00,,,0.35,0,Wunderground v.1.15,2013-04-13 00:44:00,
2013-04-12 20:54:00,33.8,33.5,29.79,ENE,72,7.0,8.0,99,0.00,,,0.35,0,Wunderground v.1.15,2013-04-13 00:54:00,
2013-04-12 20:59:00,33.7,33.4,29.79,NNE,14,7.0,8.0,99,0.00,,,0.35,0,Wunderground v.1.15,2013-04-13 00:59:00,
2013-04-12 21:09:00,33.7,33.4,29.79,NE,43,6.0,7.0,99,0.00,,,0.35,0,Wunderground v.1.15,2013-04-13 01:09:00,
2013-04-12 21:14:00,33.7,33.4,29.79,ENE,73,5.0,5.0,99,0.00,,,0.35,0,Wunderground v.1.15,2013-04-13 01:14:00,
2013-04-12 21:19:00,33.7,33.4,29.79,NNE,30,6.0,6.0,99,0.00,,,0.35,0,Wunderground v.1.15,2013-04-13 01:19:00,
2013-04-12 21:24:00,33.7,33.4,29.79,NE,36,6.0,6.0,99,0.00,,,0.35,0,Wunderground v.1.15,2013-04-13 01:24:00,
2013-04-12 21:29:00,33.7,33.4,29.80,NE,44,6.0,6.0,99,0.00,,,0.35,0,Wunderground v.1.15,2013-04-13 01:29:00,
2013-04-12 21:34:00,33.7,33.4,29.79,ENE,61,6.0,6.0,99,0.00,,,0.35,0,Wunderground v.1.15,2013-04-13 01:34:00,
2013-04-12 21:39:00,33.7,33.4,29.79,North,360,6.0,13.0,99,0.00,,,0.35,0,Wunderground v.1.15,2013-04-13 01:39:00,
2013-04-12 21:49:00,33.5,33.0,29.79,NNE,26,6.0,10.0,98,0.00,,,0.35,0,Wunderground v.1.15,2013-04-13 01:49:00,
2013-04-12 21:54:00,33.5,33.2,29.79,NNE,33,6.0,7.0,99,0.00,,,0.35,0,Wunderground v.1.15,2013-04-13 01:54:00,
2013-04-12 22:04:00,33.5,33.2,29.80,ENE,69,6.0,9.0,99,0.00,,,0.35,0,Wunderground v.1.15,2013-04-13 02:04:00,
2013-04-12 22:09:00,33.5,33.2,29.79,NNE,33,5.0,9.0,99,0.00,,,0.35,0,Wunderground v.1.15,2013-04-13 02:09:00,
2013-04-12 22:19:00,33.4,33.1,29.79,NE,40,6.0,8.0,99,0.00,,,0.35,0,Wunderground v.1.15,2013-04-13 02:19:00,
2013-04-12 22:29:00,33.3,33.0,29.80,ENE,67,6.0,7.0,99,0.00,,,0.35,0,Wunderground v.1.15,2013-04-13 02:29:00,
2013-04-12 22:39:00,33.3,33.0,29.79,NE,42,6.0,6.0,99,0.00,,,0.35,0,Wunderground v.1.15,2013-04-13 02:39:00,
2013-04-12 22:44:00,33.3,33.0,29.79,NE,44,6.0,6.0,99,0.00,,,0.35,0,Wunderground v.1.15,2013-04-13 02:44:00,
2013-04-12 22:49:00,33.2,33.0,29.79,East,87,6.0,6.0,99,0.00,,,0.35,0,Wunderground v.1.15,2013-04-13 02:49:00,
2013-04-12 22:54:00,33.2,33.0,29.80,North,360,6.0,6.0,99,0.00,,,0.35,0,Wunderground v.1.15,2013-04-13 02:54:00,
2013-04-12 23:04:00,33.2,33.0,29.81,North,9,6.0,6.0,99,0.00,,,0.35,0,Wunderground v.1.15,2013-04-13 03:04:00,
2013-04-12 23:09:00,33.2,33.0,29.80,NE,34,6.0,6.0,99,0.00,,,0.35,0,Wunderground v.1.15,2013-04-13 03:09:00,
2013-04-12 23:14:00,33.2,33.0,29.80,ENE,63,5.0,8.0,99,0.00,,,0.35,0,Wunderground v.1.15,2013-04-13 03:14:00,
2013-04-12 23:24:00,33.2,33.0,29.79,NE,37,5.0,5.0,99,0.00,,,0.35,0,Wunderground v.1.15,2013-04-13 03:24:00,
2013-04-12 23:29:00,33.2,33.0,29.78,NW,323,5.0,9.0,99,0.00,,,0.35,0,Wunderground v.1.15,2013-04-13 03:29:00,
2013-04-12 23:39:00,33.1,32.9,29.79,NNE,23,6.0,9.0,99,0.00,,,0.35,0,Wunderground v.1.15,2013-04-13 03:39:00,
2013-04-12 23:44:00,33.1,32.9,29.80,ENE,59,6.0,6.0,99,0.00,,,0.35,0,Wunderground v.1.15,2013-04-13 03:44:00,
2013-04-12 23:54:00,33.1,32.9,29.81,NNE,32,6.0,6.0,99,0.00,,,0.35,0,Wunderground v.1.15,2013-04-13 03:54:00,
2013-04-12 23:59:00,33.1,32.9,29.81,NE,35,6.0,6.0,99,0.00,,,0.35,0,Wunderground v.1.15,2013-04-13 03:59:00,